Regional Weather Roundup
Issued by NWS

Home | Current Version | Previous Version | Graphics & Text | Print | Product List | Glossary On
Versions: 1 2 3 4 5 6 7 8 9 10 11 12 13 14 15 16 17 18 19 20 21 22 23 24 25 26 27 28 29 30 31 32 33 34 35 36 37 38 39 40 41 42 43 44 45 46 47 48 49 50
000
ASUS43 KMPX 270110
RWRMN
WEATHER ROUNDUP FOR MINNESOTA
NATIONAL WEATHER SERVICE TWIN CITIES/CHANHASSEN MN
800 PM CDT TUE AUG 26 2014


NOTE: "FAIR" INDICATES FEW OR NO CLOUDS BELOW 12,000 FEET WITH NO
SIGNIFICANT WEATHER AND/OR OBSTRUCTIONS TO VISIBILITY. N/A MEANS
CURRENT SKY AND/OR WEATHER CONDITIONS ARE NOT AVAILABLE.

MNZ060>063-068>070-270200-
   Twin Cities Metro

CITY           SKY/WX    TMP DP  RH WIND       PRES   REMARKS
TWIN CITIES    MOCLDY    70  52  52 NW9       30.14S
ST PAUL        MOCLDY    70  52  52 N8        30.14R
CRYSTAL        MOCLDY    69  53  56 NW5       30.13S
LAKEVILLE      MOCLDY    64  55  72 W3        30.14F
EDEN PRAIRIE   MOCLDY    69  55  60 CALM      30.13S
SOUTH ST PAUL  MOCLDY    71  52  50 CALM      30.13S
LAKE ELMO      FAIR      68  54  60 N3        30.15S
$$
MNZ001>005-007-008-013>017-022>024-027-028-270200-
   Northwest Minnesota

CITY           SKY/WX    TMP DP  RH WIND       PRES   REMARKS
BEMIDJI        MOCLDY    58  50  73 CALM      30.15S
HALLOCK        PTCLDY    61  52  72 E5        30.12S
ROSEAU         PTCLDY    57  48  72 CALM      30.15S
WARROAD        MOCLDY    57  50  77 CALM      30.15S
THIEF RVR FALL CLOUDY    63  52  67 CALM      30.14S
CROOKSTON      MOCLDY    63  54  72 SW5       30.14S
FOSSTON        LGT RAIN  57  52  82 CALM      30.15F
DETROIT LAKES  LGT RAIN  63  52  67 SE3       30.16F
MOORHEAD       LGT RAIN  63  63 100 N5        30.15R
PARK RAPIDS    LGT RAIN  60  52  74 NW3       30.16S
MAHNOMEN       LGT RAIN  58  56  91 CALM      30.14F
$$
MNZ006-009>011-018-025>026-270200-
   North Central Minnesota

CITY           SKY/WX    TMP DP  RH WIND       PRES   REMARKS
BAUDETTE       MOCLDY    56  48  74 CALM      30.16S
FLAG ISLAND    PTCLDY    57  46  67 W6        30.13S
INTL FALLS       N/A     55  48  77 SW5       30.15S
WASKISH        MOCLDY    54  52  94 CALM      30.16S
BIG FORK       PTCLDY    55  48  76 CALM      30.18R
LONGVILLE      PTCLDY    55  54  94 CALM      30.16S
GRAND RAPIDS   PTCLDY    55  46  71 CALM      30.17S
CRANE LAKE     CLOUDY    55  48  76 CALM      30.17R
ORR            CLOUDY    57  46  67 NW5       30.14R
COOK           CLOUDY    57  48  72 W7        30.16S
WALKER         CLOUDY    57  52  84 CALM      30.16R
$$
MNZ012-019>021-037-270200-
   Northeast Minnesota

CITY           SKY/WX    TMP DP  RH WIND       PRES   REMARKS
DULUTH         PTCLDY    60  50  69 NW6       30.15R
ELY            CLOUDY    57  48  72 NW3       30.14R
HIBBING        CLOUDY    58  47  66 W6        30.16S
EVELETH        MOCLDY    57  46  67 W6        30.17R
DULUTH HARBOR  PTCLDY    66  54  63 NW9       30.14R
TWO HARBORS    MOCLDY    57  52  82 CALM      30.12S
SILVER BAY     MOCLDY    57  54  88 CALM      30.12R
GRAND MARAIS     N/A     60  48  64 W3        30.12R
G MARAIS ARPRT MOCLDY    54  45  71 CALM      30.14R
$$
MNZ029>031-032-039>041-046>048-054>057-064-270200-
   West Central Minnesota

CITY           SKY/WX    TMP DP  RH WIND       PRES   REMARKS
FERGUS FALLS   CLOUDY    64  54  68 CALM      30.14F
WHEATON        CLOUDY    59  54  82 CALM      30.16F
MORRIS         CLOUDY    63  57  82 CALM      30.15F
ALEXANDRIA     CLOUDY    63  55  75 CALM      30.17F
ELBOW LAKE     MOCLDY    61  56  84 SW3       30.15F
WADENA         MOCLDY    61  55  82 CALM      30.16S
GLENWOOD       CLOUDY    61  57  88 CALM      30.17F
APPLETON       LGT RAIN  63  55  77 N5        30.15F
BENSON         LGT RAIN  61  55  82 N5        30.16F
ORTONVILLE     CLOUDY    61  55  82 N6        30.15F
MADISON        MOCLDY    66  59  77 NE5       30.15S
WILLMAR        FAIR      64  55  72 CALM      30.16F
$$
MNZ033>034-036-042>043-049>051-058-059-270200-
   Central Minnesota

CITY           SKY/WX    TMP DP  RH WIND       PRES   REMARKS
ST CLOUD       CLOUDY    67  53  61 N3        30.14F
SAUK CENTRE    FAIR      61  56  83 CALM      30.16F
PAYNESVILLE    HVY RAIN  61  55  78 W3        30.16F
AITKIN         PTCLDY    59  52  77 CALM      30.15F
PINE RIVER     MOCLDY    61  54  77 CALM      30.18F
BRAINERD       MOCLDY    61  52  72 N3        30.16F
STAPLES        MOCLDY    61  54  77 CALM      30.16F
LONG PRAIRIE   FAIR      63  54  72 CALM      30.17S
LITTLE FALLS   CLOUDY    63  52  67 CALM      30.16F
LITCHFIELD     CLOUDY    66  55  68 N3        30.16S
BUFFALO        CLOUDY    67  53  60 NW3       30.16S
MAPLE LAKE     CLOUDY    66  57  73 CALM      30.16F
$$
MNZ037-044-045-052-053-270200-
   East Central Minnesota

CITY           SKY/WX    TMP DP  RH WIND       PRES   REMARKS
PRINCETON      MOCLDY    66  55  68 NW2       30.15F
MORA           PTCLDY    57  52  82 CALM      30.17S
CAMBRIDGE      PTCLDY    66  54  63 CALM      30.14S
RUSH CITY      MOCLDY    63  55  75 CALM      30.15S
MOOSE LAKE     PTCLDY    59  52  77 NW5       30.14R
HINCKLEY       FAIR      63  54  72 W3        30.15R
CLOQUET        PTCLDY    59  48  67 NW6       30.15S
MCGREGOR       PTCLDY    59  52  77 CALM      30.16S
$$
MNZ071>073-080-081-089-090-097-098-270200-
   Southwest Minnesota

CITY           SKY/WX    TMP DP  RH WIND       PRES   REMARKS
MONTEVIDEO     MOCLDY    63  57  82 CALM      30.16S
GRANITE FALLS  PTCLDY    64  57  77 N3        30.16F
CANBY          MOCLDY    64  57  80 NE5       30.16F
MARSHALL       PTCLDY    64  55  72 NE8       30.14S
REDWOOD FALLS  CLEAR     67  57  70 N5        30.14F
OLIVIA         PTCLDY    64  55  72 N5        30.14F
PIPESTONE      CLEAR     68  55  64 E3        30.14F
WINDOM         PTCLDY    64  55  72 CALM      30.16S
WORTHINGTON    PTCLDY    64  57  77 NE5       30.17R
JACKSON        PTCLDY    64  55  72 NE3       30.16R
TRACY          MOCLDY    67  59  75 CALM      30.15S
SLAYTON        PTCLDY    65  56  75 CALM      30.16S
$$
MNZ065>067-074>077-082>085-091>093-270200-
   South Central Minnesota

CITY           SKY/WX    TMP DP  RH WIND       PRES   REMARKS
MANKATO        MOCLDY    68  54  60 NW5       30.15S
NEW ULM        PTCLDY    68  55  64 CALM      30.14F
ST JAMES       PTCLDY    64  59  82 CALM      30.15F
FAIRMONT       MOCLDY    63  55  77 NE5       30.14S
GLENCOE        MOCLDY    68  55  62 N3        30.14S
FARIBAULT      MOCLDY    68  57  68 CALM      30.15S
OWATONNA       MOCLDY    66  57  72 CALM      30.15S
WASECA         MOCLDY    63  54  72 CALM      30.16F
ALBERT LEA     MOCLDY    66  59  77 CALM      30.15S
$$
MNZ078>079-086>088-094>096-270200-
   Southeast Minnesota

CITY           SKY/WX    TMP DP  RH WIND       PRES   REMARKS
ROCHESTER      CLOUDY    65  56  72 N3        30.16S
RED WING       MOCLDY    66  61  82 CALM      30.13S
STANTON        MOCLDY    66  60  78 CALM      30.13S
DODGE CENTER   MOCLDY    64  57  77 CALM      30.16R
WINONA         MOCLDY    70  59  68 NW3       30.14S
AUSTIN         CLOUDY    64  55  72 NE3       30.14F
PRESTON        CLOUDY    66  64  94 CALM      30.16S
$$
ABBREVIATIONS USED IN REMARKS
   TC - TEMPERATURES IN CELSIUS
  WCI - WIND CHILL INDEX
   HX - HEAT INDEX
  VSB - VISIBILITY
$$


USA.gov is the U.S. government's official web portal to all federal, state and local government web resources and services.